Location: Dittelbrunn
(50.0738°N, 10.2196°E)
Time: 13:13:22
(UTC+00:00)

COSMOS 2406 - Pass Details

Date: 18 September 2020
Orbit: 844 x 863 km, 71.0° (Epoch: 25 October)

Event Time Altitude Azimuth Distance (km) Brightness Sun altitude
Rises 19:02:24 0° 333° (NNW) 3,416 7.2 -16.0°
Reaches altitude 10° 19:05:11 10° 344° (NNW) 2,477 6.2 -16.4°
Maximum altitude 19:10:07 30° 45° (NE) 1,488 4.3 -17.1°
Enters shadow 19:12:17 23° 81° (E) 1,721 4.3 -17.4°
